Location: Proctor
(47.8934°N, 114.3048°W)
Time: 01:50:31
(UTC+00:00)

AO-109 - Pass Details

Date: 10 July 2022
Orbit: 469 x 506 km, 60.7° (Epoch: 16 August)

Event Time Altitude Azimuth Distance (km) Brightness Sun altitude
Exits shadow 10:02:39 14° 258° (WSW) 1,425 ? -13.2°
Maximum altitude 10:05:31 39° 324° (NW) 744 ? -12.9°
Drops below altitude 10° 10:09:05 10° 35° (NE) 1,681 ? -12.6°
Sets 10:11:22 0° 43° (NE) 2,574 ? -12.4°
